Wind_Speed
3 5 5 5 7 9 10 8 9 12 11 10 5 5 9 9 9 13 8 8 13 7 5 9 7 9 12 10 11 19 21 18 23 25 22 24 27 27 26 24 22 19 17 14 12 12 11 10 9 8 7 7 7 8 7 7 8 8 8 8 9 11 11 10 10 10 11 12 10 8 7 8 10 9 9 9 9 10 11 12 12 11 10 11 13 14
2 4 7 8 10 12 11 10 11 10 8 7 1 4 7 8 8 10 10 10 12 6 4 7 7 9 10 9 11 17 14 14 23 25 22 26 28 28 28 26 23 20 19 15 13 12 9 10 10 9 8 7 7 7 7 7 8 9 9 9 9 9 10 9 10 10 11 10 8 6 5 6 7 6 7 7 7 8 10 11 11 11 11 11 13 15
4 5 10 12 11 11 10 11 11 8 7 6 1 6 5 5 2 4 9 11 9 4 4 6 7 7 5 6 9 13 13 15 27 30 29 31 30 30 30 28 26 24 22 18 16 14 10 9 11 10 9 8 7 8 9 10 10 10 10 10 10 9 9 9 10 11 10 9 7 6 5 5 5 5 6 5 5 5 6 8 9 10 11 10 11 12
3 7 12 13 10 8 9 12 9 5 5 5 2 3 3 6 6 4 8 9 7 2 3 6 3 1 2 4 3 11 16 17 26 32 33 36 35 33 32 29 29 27 25 22 18 16 11 9 10 10 10 10 10 11 12 13 12 12 12 11 11 11 11 11 11 11 10 9 8 7 6 5 4 4 4 4 4 3 3 5 6 8 9 8 8 8
6 11 15 12 9 8 8 12 9 5 5 4 1 2 3 8 9 7 7 8 4 1 4 7 3 3 2 5 2 7 12 15 23 27 26 31 34 34 30 27 28 26 24 22 19 16 12 10 10 9 11 12 13 14 14 14 13 12 12 11 11 11 12 11 11 11 9 8 7 6 6 6 5 3 1 3 5 5 5 5 6 7 6 5 5 6
7 15 18 12 10 10 8 9 8 5 5 5 4 6 6 8 10 8 10 11 5 3 4 6 3 3 3 6 6 5 6 9 16 21 22 26 31 31 29 27 27 24 22 21 17 17 14 12 11 12 14 15 16 16 15 14 14 12 11 10 10 10 10 9 8 8 7 6 5 4 5 5 3 0 3 6 8 8 8 7 7 5 3 3 4 5
5 12 14 10 9 9 7 7 7 5 2 4 5 4 4 4 6 10 12 11 7 5 7 6 5 2 4 5 7 7 8 7 10 16 21 27 29 29 29 28 28 25 23 21 18 18 17 14 13 14 17 18 17 17 15 14 13 11 10 9 8 8 8 7 6 5 5 4 3 2 2 1 0 2 4 6 7 8 8 8 7 4 2 3 4 6
5 9 10 10 8 6 6 6 6 4 2 5 5 3 6 5 2 11 14 10 5 2 5 5 4 3 3 5 7 9 10 8 9 12 16 24 27 27 29 29 27 25 22 21 21 20 18 15 14 16 19 19 17 16 14 13 11 10 10 9 9 9 7 6 5 4 3 2 2 2 2 1 2 2 3 5 7 7 8 7 5 4 2 4 6 8
4 6 8 10 9 5 7 8 5 2 1 7 5 3 4 2 0 4 8 6 3 5 4 6 2 3 3 4 5 10 9 7 10 12 13 21 26 26 30 29 25 23 21 22 23 21 18 16 15 16 19 19 16 14 13 12 10 10 11 12 10 9 7 5 4 3 2 2 2 2 1 2 2 2 4 6 7 8 8 8 6 4 4 6 8 10
5 8 10 8 7 6 6 8 5 2 4 7 4 2 3 5 3 3 5 3 1 4 4 9 5 3 3 3 5 7 7 7 9 10 12 21 27 29 32 29 25 23 22 21 21 18 17 16 17 18 19 18 15 14 13 11 11 12 13 12 9 8 6 5 3 2 2 2 2 3 2 2 1 2 5 7 7 8 9 7 6 6 6 8 10 11
9 14 12 6 7 8 5 6 5 5 6 3 4 4 5 5 4 4 3 4 4 2 6 10 9 6 1 2 4 5 6 11 11 8 10 18 24 29 32 29 26 24 22 21 19 17 17 18 19 20 19 17 15 13 13 13 13 14 12 10 8 7 5 4 3 2 2 3 3 3 2 2 2 4 6 7 7 9 9 6 6 7 8 9 11 12
6 10 7 6 12 11 5 6 5 4 2 4 5 4 5 5 4 5 5 4 3 5 6 5 8 7 2 3 6 7 7 15 17 12 12 15 21 30 33 30 26 24 23 23 21 20 20 21 22 22 20 18 16 14 14 15 15 13 10 8 7 6 5 3 2 1 2 3 4 4 4 4 4 5 7 7 8 10 9 6 5 6 8 9 10 12
5 6 4 7 14 10 3 4 5 6 4 5 4 4 4 4 3 3 4 2 2 6 4 7 8 5 1 3 3 4 5 14 19 19 22 23 26 33 34 31 27 26 26 25 24 23 23 25 25 23 21 19 17 16 15 15 13 11 9 6 5 5 4 2 1 2 3 5 6 7 7 6 6 6 5 5 7 8 8 8 7 7 7 8 10 11
4 7 5 5 10 6 5 2 3 5 3 1 1 3 3 2 2 2 3 2 3 5 4 4 6 2 3 4 5 3 0 11 20 24 32 35 35 36 34 30 28 28 27 26 26 26 26 26 26 24 22 20 18 17 16 15 13 10 7 5 3 3 2 2 3 4 6 8 8 9 10 9 8 5 3 4 6 6 7 8 9 7 7 9 10 9
3 5 5 3 4 3 4 7 7 5 3 3 4 6 4 4 3 3 3 2 4 4 4 3 3 0 2 3 6 5 8 16 25 28 31 33 33 33 30 27 28 28 27 28 29 28 26 26 26 24 22 20 18 17 15 14 11 8 6 5 3 2 3 3 4 7 9 10 10 11 12 11 8 5 4 5 6 5 6 7 8 8 7 8 9 7
4 5 7 8 9 5 5 9 8 5 3 4 3 6 2 5 5 3 4 5 4 0 3 3 3 1 2 4 7 6 14 20 26 28 26 26 26 28 27 25 28 29 28 29 29 27 26 25 25 23 21 20 17 15 14 12 9 7 6 4 2 1 3 4 5 8 10 11 11 12 13 11 7 5 5 6 6 6 6 7 8 8 8 8 7 7
4 5 7 8 10 8 9 10 5 6 3 2 1 4 4 5 7 2 4 3 1 2 1 0 4 2 2 4 6 5 12 13 15 20 20 22 25 26 26 27 29 29 28 28 27 27 27 26 24 23 21 18 15 13 11 9 7 6 4 1 0 1 2 4 7 9 10 11 11 11 12 11 8 5 5 6 6 6 7 7 8 8 8 9 8 7
5 4 6 6 8 9 13 12 6 9 9 4 2 6 2 3 4 3 1 2 2 1 1 0 7 5 1 3 2 2 8 8 7 11 14 18 21 21 23 24 24 24 25 26 27 28 27 25 23 22 20 18 14 11 9 7 7 6 2 1 1 2 4 6 8 8 8 8 9 10 10 11 9 6 4 5 5 5 6 8 8 8 8 9 9 9
5 3 7 6 6 7 9 7 4 8 12 7 3 4 4 2 1 0 1 1 1 1 1 2 3 3 1 3 4 5 7 9 6 7 10 13 15 17 19 18 17 19 23 25 26 27 26 23 22 22 21 19 15 10 8 8 8 6 2 2 4 4 5 7 7 5 5 5 6 8 9 9 9 7 6 6 6 5 6 7 8 8 8 9 10 9
5 3 6 4 5 3 3 1 2 7 9 4 2 1 2 3 4 2 2 3 3 2 3 2 3 1 1 3 7 10 9 11 9 7 8 10 13 15 17 16 17 20 23 24 26 27 25 22 22 22 21 18 14 10 9 8 6 4 4 5 5 4 4 4 2 1 1 3 5 7 8 9 9 8 8 8 8 7 7 7 7 8 9 9 9 8
3 3 5 4 1 1 3 2 5 6 6 4 2 3 2 2 2 3 2 3 3 3 4 4 0 2 4 4 7 12 11 11 12 10 8 12 14 15 17 18 20 23 24 25 26 25 22 22 23 23 20 17 14 11 9 9 8 7 7 7 5 4 4 3 2 2 0 2 4 7 8 9 10 10 10 8 7 8 8 8 9 9 9 9 8 7
2 3 4 4 4 2 5 6 5 6 8 7 6 6 5 4 3 2 3 3 3 4 4 5 3 4 4 3 5 12 10 11 14 12 12 14 16 17 19 21 22 23 23 24 24 23 21 24 25 22 19 17 13 10 10 11 10 9 10 9 7 7 7 5 3 2 1 3 5 6 7 8 11 12 11 9 7 7 8 9 9 9 9 9 8 7
5 3 3 4 4 4 8 8 6 6 6 7 6 6 5 3 3 4 4 3 3 4 2 5 3 2 4 4 3 11 12 14 15 14 15 16 18 20 21 21 21 19 20 21 22 22 22 24 24 21 18 14 12 11 11 10 10 11 14 12 10 8 7 5 3 2 1 3 4 5 6 9 12 13 13 12 10 7 8 9 10 10 10 9 7 6
3 2 1 4 4 4 7 6 5 4 1 1 3 3 4 2 3 5 5 3 4 3 2 5 2 2 2 5 2 10 13 13 11 12 16 19 20 22 22 21 20 19 21 22 23 24 25 24 23 20 16 12 13 14 12 11 13 14 16 15 12 8 5 2 1 2 2 2 3 5 7 10 12 13 14 14 10 8 9 10 9 10 9 7 7 6
3 0 1 2 6 7 7 7 6 5 4 3 2 3 4 4 7 6 3 4 4 2 3 5 1 3 1 1 2 7 8 9 8 8 15 20 22 23 21 21 23 23 24 25 25 26 26 25 22 18 14 12 15 14 11 12 13 13 13 12 8 4 2 1 0 1 1 2 4 6 8 9 10 12 15 14 10 8 11 12 11 11 9 8 8 9
4 1 3 2 3 3 2 2 3 3 2 3 4 7 8 7 9 6 3 6 4 1 3 5 3 2 3 3 3 4 6 7 8 9 13 18 22 23 22 24 26 25 25 25 25 26 26 23 20 16 12 11 14 15 12 12 12 11 10 7 4 1 1 1 1 1 3 4 6 7 8 9 10 12 15 13 8 8 10 13 14 13 11 9 8 10
3 2 4 6 6 5 5 6 5 1 3 4 5 8 9 10 11 8 6 5 3 3 3 1 5 9 7 7 6 6 6 6 8 12 15 19 21 22 23 26 26 25 24 23 23 24 23 20 16 14 12 14 16 15 12 11 11 9 7 4 2 2 1 1 1 3 5 6 7 6 8 9 10 12 15 13 7 6 9 12 13 13 13 9 7 9
4 0 3 5 5 6 6 7 6 4 6 7 8 8 8 11 12 10 8 7 6 5 2 2 7 11 10 10 10 9 8 7 9 14 18 21 21 22 25 25 23 23 23 23 22 20 18 17 15 13 15 18 17 13 11 11 9 7 4 2 3 2 2 2 3 3 4 6 6 6 7 9 10 12 15 14 10 6 7 9 11 14 13 11 12 12
5 2 5 4 3 6 3 1 5 8 8 8 9 7 6 10 13 12 9 9 7 5 4 6 7 8 9 11 10 10 12 12 14 18 21 21 21 23 24 22 20 21 22 22 21 17 16 17 15 14 17 18 15 13 12 10 7 4 3 3 3 3 4 3 3 4 5 6 5 4 6 7 9 10 12 15 14 10 8 9 11 14 14 14 17 18
4 3 3 4 1 3 7 12 13 11 10 11 11 8 7 9 12 12 8 7 7 9 10 12 9 4 4 8 8 11 15 18 19 20 20 20 21 23 24 22 20 21 23 23 20 17 15 14 12 14 19 19 16 14 11 8 6 4 4 4 4 5 5 5 5 5 5 7 6 4 4 6 8 8 10 13 14 13 11 10 11 13 14 14 15 16
1 3 2 4 3 4 10 16 14 12 13 13 9 8 10 11 11 12 10 9 9 8 9 13 11 3 0 6 12 15 19 19 19 20 19 20 22 24 23 21 20 22 23 21 17 15 13 12 13 18 20 18 15 13 9 7 6 5 6 6 5 5 5 5 5 6 6 8 7 4 3 5 6 7 9 12 12 12 12 11 11 12 12 11 10 12
1 2 1 4 3 1 7 17 16 13 15 12 6 5 8 9 8 7 7 6 7 10 10 9 8 3 3 9 15 17 20 20 19 20 19 19 22 24 22 20 20 22 21 17 16 15 14 15 20 22 19 16 14 10 8 7 7 7 7 6 5 5 5 5 5 6 7 7 7 5 2 2 3 5 8 10 10 10 11 11 11 11 11 10 9 11
3 2 1 4 2 4 4 13 12 9 10 6 2 1 2 6 7 5 4 3 6 10 9 5 4 5 7 11 12 12 15 17 19 21 22 22 23 23 22 21 20 20 18 16 16 16 18 22 24 21 18 15 12 10 9 8 7 7 6 5 4 3 4 5 4 5 6 6 6 6 4 1 0 2 5 7 8 9 10 10 10 10 11 11 11 12
1 3 3 3 3 1 1 6 7 7 4 1 4 2 2 5 8 8 6 5 6 6 5 5 6 8 9 10 11 13 15 18 22 25 25 26 26 24 23 22 20 19 18 17 17 19 23 26 23 19 17 14 11 10 9 6 6 7 7 6 4 3 4 4 3 3 3 4 5 7 6 2 1 1 3 5 6 8 9 10 9 9 9 10 11 13
3 2 2 2 4 3 1 5 7 4 2 4 1 3 6 9 12 13 9 6 7 9 10 11 10 9 10 11 14 18 20 22 23 23 23 25 27 26 24 23 21 21 21 19 20 24 27 26 22 19 16 13 10 8 6 6 8 9 8 7 4 3 3 2 2 3 4 4 6 8 8 4 1 1 3 5 6 7 8 7 6 7 9 8 10 12
6 4 1 2 3 2 2 4 4 2 2 2 5 7 8 9 10 12 8 5 3 7 11 11 9 10 14 17 19 21 23 23 19 17 19 22 24 24 24 24 24 23 22 22 24 27 26 23 20 18 14 11 8 6 6 8 10 10 8 5 3 3 3 3 4 5 5 5 6 7 8 7 5 4 4 5 5 5 7 7 6 6 8 8 9 10
5 5 2 3 3 3 4 4 4 3 2 3 3 3 4 4 4 6 4 2 3 4 12 12 9 12 17 19 22 26 27 23 15 11 14 20 22 22 22 24 24 23 23 24 25 25 24 20 16 13 10 9 8 8 9 10 9 8 6 4 3 2 3 5 6 6 5 5 6 7 7 7 7 7 7 7 7 7 8 9 7 6 7 9 9 9
4 4 5 4 2 2 5 4 4 4 1 4 5 5 4 8 9 8 6 1 3 5 16 17 12 13 17 19 23 26 24 14 6 5 13 19 21 22 21 21 22 23 25 26 25 23 19 15 12 11 10 10 10 10 9 8 7 6 5 4 2 2 4 6 7 7 6 4 5 6 6 7 7 8 8 8 7 7 9 10 9 7 7 8 8 8
10 3 4 6 3 2 6 5 3 2 2 5 4 1 8 16 14 9 5 2 4 9 18 19 16 16 20 22 22 20 14 6 2 7 16 20 21 22 22 22 23 25 26 24 23 20 16 14 13 12 11 11 11 11 9 6 5 5 4 2 0 3 6 8 8 8 6 4 4 4 4 5 6 7 8 6 5 6 8 9 10 9 9 7 6 7
9 6 4 7 4 3 5 4 2 2 2 3 3 1 10 13 10 8 3 4 7 14 19 21 21 20 21 23 21 13 5 3 9 15 20 22 22 22 24 24 26 27 25 22 19 16 15 14 13 12 12 11 10 10 8 5 4 3 1 2 3 3 7 8 7 7 6 5 4 4 3 3 4 5 7 5 4 6 7 8 10 11 9 7 5 5
5 4 3 5 4 4 6 4 2 1 2 4 5 1 6 7 5 3 3 6 12 20 20 22 24 23 23 23 16 7 2 6 17 24 25 24 25 26 25 24 24 23 21 19 17 15 15 14 12 12 12 11 10 9 7 5 4 2 1 4 5 5 7 9 8 7 7 7 5 4 3 2 3 4 6 6 5 6 7 9 10 11 9 8 6 6
2 3 3 3 3 2 4 4 2 1 3 4 5 3 7 5 2 3 5 12 22 23 20 22 24 23 22 20 13 9 10 16 24 28 27 27 29 29 27 25 24 22 20 19 18 17 17 16 14 13 12 10 9 9 6 5 3 1 1 3 5 5 6 7 8 7 8 9 7 6 5 4 3 3 5 5 5 5 6 9 10 10 10 9 8 8
1 1 1 0 2 1 2 3 3 2 4 5 4 2 4 2 5 8 13 18 23 22 20 22 23 22 21 19 16 19 23 26 28 29 29 31 31 29 28 26 25 23 22 21 19 18 17 17 16 14 12 10 10 9 7 5 3 2 2 2 3 3 4 4 6 6 8 9 8 8 8 6 5 4 4 4 4 4 6 8 9 9 10 10 9 9
1 2 2 2 2 2 2 1 3 4 2 2 3 3 3 7 14 20 22 19 19 21 21 21 22 23 23 24 26 28 29 29 30 31 31 30 29 28 28 26 24 23 21 20 20 19 19 18 16 14 12 10 9 8 5 4 3 1 4 3 2 3 3 2 4 4 6 7 8 9 9 8 7 7 5 4 4 5 6 8 8 9 9 10 10 10
3 3 3 2 2 3 2 3 5 5 7 11 15 14 14 15 18 22 23 21 21 22 23 25 27 27 27 29 31 31 30 31 31 31 30 28 28 29 29 26 25 23 21 20 20 20 18 16 15 14 11 8 7 5 4 3 2 3 3 2 2 2 2 3 4 4 4 5 6 7 8 8 7 7 6 4 4 5 6 6 7 7 8 10 12 12
2 1 1 3 3 4 6 6 8 10 12 16 17 17 18 18 19 20 22 23 24 25 26 28 30 30 30 31 32 31 31 32 31 29 29 30 30 30 29 28 26 23 21 21 20 19 18 16 14 12 11 9 6 3 2 4 4 4 2 1 2 3 3 2 2 4 4 3 4 5 6 6 5 4 4 4 6 7 7 7 7 7 7 10 12 12
5 6 4 3 4 4 4 3 7 11 15 18 18 18 19 20 20 20 20 22 25 27 27 29 29 30 31 32 32 33 33 33 33 32 31 31 31 29 29 28 26 22 21 20 19 18 17 15 13 10 9 8 5 2 3 7 6 4 3 2 3 5 6 4 1 4 4 3 2 3 4 5 4 3 3 5 7 8 8 8 9 8 8 10 10 10
2 5 4 3 4 3 3 6 12 17 18 20 21 20 20 20 19 18 19 22 25 27 27 27 28 30 31 32 34 36 35 34 34 33 31 31 31 30 29 27 23 19 17 16 16 15 13 12 10 8 6 5 2 1 4 8 7 5 3 2 1 4 7 5 1 2 3 3 2 2 4 5 5 4 4 5 7 8 8 8 8 9 9 9 9 9
2 3 2 3 5 5 4 9 16 17 14 17 22 22 20 20 21 21 23 25 26 27 28 27 26 28 31 33 35 36 35 34 32 32 32 32 31 30 28 24 19 17 15 16 16 14 11 10 8 5 4 3 2 1 4 7 7 5 3 2 2 3 7 6 2 1 2 2 2 2 3 5 6 5 5 6 7 8 7 7 9 10 10 8 7 8
3 3 3 5 6 4 4 8 13 11 6 10 20 22 20 22 23 24 25 26 27 28 29 28 28 29 31 33 35 36 35 33 31 30 31 31 29 28 24 20 16 15 15 17 17 14 12 10 7 5 5 4 3 3 6 8 6 4 2 2 2 1 5 6 4 3 3 2 2 3 5 7 8 7 6 7 8 8 8 8 9 11 11 8 7 8
4 8 8 6 5 6 9 12 18 17 11 14 21 23 21 21 22 23 22 24 26 27 27 27 29 31 32 32 33 33 33 33 31 30 30 29 26 24 20 16 15 15 17 19 19 16 14 11 8 6 5 4 4 4 7 7 5 3 2 2 3 2 2 5 6 5 4 3 3 4 6 8 9 8 7 6 6 8 9 9 9 10 9 8 8 9
Wind_Direction
251 280 283 255 258 258 256 238 231 250 252 246 226 161 167 174 200 203 184 173 170 159 197 189 175 177 174 173 173 168 163 149 147 157 157 145 142 145 150 157 159 156 152 155 163 159 152 155 154 154 151 149 151 145 143 143 135 135 138 137 130 130 132 125 118 114 114 113 104 94 83 73 69 59 49 44 39 38 40 38 34 35 37 32 23 14
318 279 265 251 251 254 261 263 261 268 273 273 305 110 160 179 206 194 175 185 173 153 203 180 163 189 182 173 172 164 154 141 147 153 149 141 140 147 154 160 160 154 153 159 168 167 160 160 160 159 156 153 150 139 138 145 140 136 134 132 129 133 144 137 126 123 119 116 110 102 92 83 82 64 45 38 32 36 41 37 34 29 22 25 25 15
309 271 263 258 260 270 278 278 279 286 289 286 64 99 145 175 159 162 183 187 163 151 207 174 175 200 185 166 165 160 153 147 151 151 146 141 140 149 157 161 160 155 159 169 174 174 174 166 161 161 154 148 146 135 133 138 137 138 135 133 133 136 144 140 136 140 135 130 127 116 106 103 99 67 48 48 44 48 47 38 36 25 16 27 33 20
258 259 266 266 271 285 288 283 291 311 306 312 17 62 157 165 137 158 207 181 143 153 176 151 162 300 80 108 138 167 157 144 149 149 146 146 146 155 164 164 161 161 168 175 174 173 176 168 164 161 148 140 141 137 132 134 135 137 138 136 137 135 135 136 138 144 143 143 143 134 132 142 137 96 56 46 39 38 37 34 33 20 20 40 46 27
223 251 265 279 287 288 293 295 310 333 320 325 271 219 176 175 184 183 167 141 116 11 122 115 63 348 137 136 150 176 145 127 142 142 137 144 150 158 166 163 161 167 172 174 173 171 170 167 163 152 143 140 138 137 134 136 138 139 139 137 137 135 133 135 138 141 146 152 153 152 153 158 159 147 65 21 11 359 356 7 14 7 13 43 50 32
234 252 260 273 281 283 293 293 293 287 297 312 242 207 168 176 196 170 122 124 151 252 192 137 95 303 249 169 176 174 121 111 135 135 128 140 150 158 161 159 161 169 173 173 176 174 170 168 161 146 143 142 137 138 140 142 144 144 143 140 139 141 139 139 139 140 153 163 166 170 163 158 164 116 18 12 3 353 347 349 0 5 4 25 27 14
227 248 258 268 272 281 285 275 267 241 250 303 255 191 124 132 160 146 136 147 174 217 207 165 129 242 267 200 182 156 131 121 128 135 137 145 155 160 160 160 164 171 175 177 180 177 173 172 162 147 143 142 142 145 148 150 150 150 148 144 144 147 144 140 134 133 146 159 162 155 133 141 297 360 11 3 351 348 349 351 5 29 33 12 3 357
216 233 253 266 270 285 278 265 255 217 194 269 250 94 58 30 114 154 159 176 195 146 167 177 125 121 246 227 179 149 137 128 131 144 148 152 157 161 163 164 168 176 182 182 181 180 177 171 160 150 145 148 151 151 154 156 154 154 151 147 147 144 138 131 121 116 121 118 101 81 54 349 321 342 358 350 344 351 4 17 36 56 40 1 353 352
223 216 237 251 260 264 261 263 259 209 230 255 236 92 66 54 76 164 149 175 198 94 141 211 159 105 261 262 147 140 134 132 152 160 155 154 159 162 163 167 173 181 186 184 181 180 176 168 158 152 151 154 155 154 156 156 153 153 149 145 144 139 132 122 108 103 97 87 78 61 19 339 340 346 356 353 352 5 20 38 51 44 19 3 359 357
244 237 234 235 251 245 242 256 260 238 248 263 277 14 47 69 46 41 100 125 48 67 182 214 182 119 274 286 120 135 146 157 172 171 157 155 159 162 162 168 177 185 187 182 180 179 173 166 159 157 157 157 156 156 160 160 156 151 145 144 145 135 127 119 109 110 92 75 43 23 9 355 5 358 356 357 6 21 31 43 45 27 10 4 4 4
254 259 253 232 242 248 259 259 246 239 239 277 359 7 12 23 32 37 68 81 54 339 241 212 179 140 262 265 154 167 174 165 168 170 154 148 154 160 164 173 181 186 186 180 180 179 167 163 161 160 162 160 158 162 164 162 156 150 146 147 144 130 121 119 115 107 72 34 10 14 13 1 12 6 359 4 21 31 33 37 29 14 6 4 6 9
272 271 267 246 248 251 284 287 275 288 285 76 59 46 14 343 5 25 358 37 93 258 268 184 146 117 125 244 207 207 177 157 164 168 153 145 152 161 169 177 179 181 182 179 181 177 165 163 163 162 165 164 163 165 161 155 150 146 144 144 139 125 114 113 106 65 27 12 6 7 359 351 359 6 5 13 30 33 29 24 7 359 0 2 5 8
294 272 261 268 265 246 225 290 305 329 9 59 59 56 32 339 4 10 308 344 193 252 263 143 123 92 199 261 246 213 169 164 171 162 151 151 157 165 172 174 174 178 180 178 181 179 171 167 163 161 163 163 163 164 158 152 147 144 139 137 137 123 103 82 56 12 359 1 7 8 4 359 359 6 14 27 41 40 27 13 358 355 1 2 6 12
294 289 286 294 287 246 172 187 293 299 310 339 156 113 92 92 69 300 271 297 260 272 288 152 115 65 266 325 351 340 109 164 161 151 150 156 160 165 170 169 171 179 177 176 181 180 175 170 162 159 160 161 161 161 158 152 148 147 143 142 138 106 62 17 6 359 1 7 13 15 13 14 18 29 49 45 51 46 24 9 359 359 1 3 12 22
221 276 270 235 259 246 191 203 211 215 226 233 175 134 136 151 154 232 222 218 251 267 314 351 64 128 227 347 339 356 61 109 127 136 148 154 157 160 162 163 169 176 174 174 179 176 172 166 158 157 160 162 161 158 156 152 147 149 147 140 124 67 13 9 9 1 8 14 14 13 16 22 36 66 72 48 50 45 24 11 4 5 1 5 24 40
191 245 249 235 241 233 225 227 196 154 219 246 156 116 158 186 167 224 210 194 216 154 5 4 49 69 136 37 350 33 73 91 114 129 140 146 151 153 153 160 169 174 174 173 173 169 165 160 157 160 164 163 161 157 155 151 145 149 151 145 136 20 360 12 4 358 8 12 10 10 17 26 46 82 74 54 55 48 29 15 11 13 7 9 28 39
183 248 257 251 257 241 235 240 183 155 214 282 198 199 220 173 142 165 254 252 213 116 333 7 108 96 93 55 354 36 86 94 115 127 137 145 149 149 153 164 171 171 171 170 167 164 161 160 162 165 165 164 163 158 155 150 147 155 158 160 242 325 19 21 5 5 13 13 12 14 19 27 42 70 66 46 45 36 21 13 9 8 5 6 16 23
175 253 270 242 256 265 260 262 230 190 182 131 215 221 198 65 94 114 230 333 7 140 272 74 130 157 171 87 327 348 101 116 132 128 137 147 149 150 157 165 168 167 169 166 163 162 161 161 164 165 166 169 169 162 155 154 166 177 176 106 31 49 60 33 13 16 23 17 16 19 21 24 30 40 31 15 18 17 15 18 15 10 9 10 14 16
171 238 285 240 221 267 275 267 263 230 204 182 207 187 134 70 39 76 177 123 333 214 89 32 95 123 71 102 186 208 151 146 147 132 144 152 149 149 154 160 163 163 164 163 163 165 161 159 162 163 165 171 170 165 165 170 181 190 171 103 81 75 54 22 11 22 29 20 16 17 18 18 19 21 10 352 348 350 5 21 20 12 9 11 14 11
167 193 280 245 181 239 303 200 223 251 233 228 324 7 132 158 167 199 195 154 196 209 128 65 20 64 194 198 195 200 180 155 151 162 166 146 136 142 147 152 159 160 158 160 164 165 161 159 162 163 167 172 168 168 177 174 169 152 130 121 98 69 30 12 24 91 43 19 11 5 6 8 9 13 9 354 337 334 349 5 5 0 3 9 13 5
150 189 257 286 10 337 306 237 205 217 216 214 244 254 252 217 182 199 201 144 145 156 132 122 130 246 248 254 192 184 181 165 166 173 154 129 131 142 146 147 154 156 155 159 162 160 160 163 164 166 171 170 167 175 177 154 131 122 134 143 128 85 75 95 134 162 149 351 345 342 349 1 5 5 5 358 341 334 341 349 351 351 354 3 6 353
140 185 218 291 333 292 255 242 226 217 196 182 196 217 213 194 158 155 263 301 79 106 136 138 156 244 269 299 170 167 173 177 174 163 137 132 139 144 146 150 154 155 155 160 161 158 162 166 166 170 171 165 165 173 166 146 135 144 160 162 146 121 119 133 163 189 239 307 320 330 347 5 7 4 4 0 351 343 341 347 355 354 352 1 3 350
157 152 196 255 260 242 253 258 264 254 206 181 200 207 188 171 138 142 221 270 52 55 66 101 100 253 286 319 180 164 170 174 169 155 139 138 142 144 146 151 153 151 153 159 164 164 166 168 166 167 167 164 162 157 151 147 146 159 169 164 150 140 140 149 165 187 264 301 316 341 4 10 6 5 6 1 356 353 350 349 353 356 358 4 5 7
156 119 212 268 295 300 287 290 306 309 113 163 230 184 149 172 137 133 174 169 77 30 51 81 58 249 294 321 216 164 161 156 147 146 141 135 140 145 147 152 153 150 150 154 161 166 167 166 165 162 160 157 152 150 148 147 148 157 163 160 155 155 154 156 187 239 273 307 343 5 15 13 7 8 11 8 4 2 3 3 2 5 13 21 25 37
189 203 83 328 331 338 335 345 345 341 26 30 335 38 67 111 108 94 89 92 71 20 97 111 193 241 195 305 203 145 128 110 100 127 140 136 141 146 147 152 154 150 149 152 158 163 164 163 160 156 155 151 151 153 152 151 158 165 164 164 168 169 155 144 192 258 269 325 345 355 6 11 7 11 19 20 14 13 20 25 26 25 35 48 43 40
156 157 99 128 266 283 300 321 300 298 23 32 29 49 54 78 98 101 76 72 79 59 87 121 169 161 130 176 191 135 115 107 105 121 136 142 146 147 147 153 155 151 148 152 159 162 162 162 159 155 159 163 163 165 162 160 166 170 167 169 173 153 114 147 133 42 18 2 355 358 11 14 10 18 28 30 27 34 37 34 31 28 31 41 36 26
113 140 138 153 190 207 205 220 243 243 99 91 79 84 86 87 93 100 96 92 133 122 38 337 149 137 154 185 182 159 146 140 132 132 141 148 149 148 150 155 158 155 153 158 163 162 162 165 166 165 169 169 166 166 165 165 165 164 164 155 99 66 81 122 67 6 9 10 10 17 23 18 16 28 37 39 42 54 44 35 32 26 21 27 26 12
88 147 184 163 204 230 223 243 292 20 99 115 96 92 99 103 99 95 108 134 140 107 23 281 146 142 170 187 178 169 159 152 152 152 151 151 150 150 153 157 158 158 163 167 166 163 166 170 168 164 163 163 162 162 162 163 159 154 149 100 67 77 93 54 8 6 20 19 19 29 29 23 25 34 37 39 48 59 44 34 30 25 26 39 44 34
106 202 202 152 224 268 281 2 32 59 92 95 84 86 89 101 106 103 119 150 148 128 159 173 148 143 169 181 180 171 164 163 163 160 154 150 149 153 158 161 161 162 168 171 170 169 170 170 166 158 156 159 160 160 160 158 146 129 99 76 80 99 99 64 46 61 51 37 38 40 31 27 32 36 34 36 45 53 47 37 34 37 44 52 50 45
116 217 203 130 134 338 59 82 84 82 82 73 71 80 77 83 95 99 112 135 124 125 141 139 129 119 161 171 168 160 160 159 155 154 153 152 155 159 164 164 163 167 172 176 177 176 175 175 167 155 155 158 160 160 157 147 129 111 89 87 92 95 89 73 74 78 51 41 48 42 27 29 32 35 34 34 41 48 46 40 41 45 47 48 47 44
186 241 223 102 51 17 77 95 96 91 89 83 74 81 88 88 89 96 107 106 96 107 124 122 120 114 234 135 130 138 147 148 149 155 158 160 162 163 163 163 166 173 175 175 177 179 182 178 159 153 156 159 160 158 149 133 121 110 103 100 98 93 80 62 62 62 46 46 55 55 38 38 37 34 32 33 38 43 43 40 46 52 49 47 46 40
152 252 289 78 62 317 110 108 107 102 94 83 70 87 101 101 103 110 122 130 132 132 124 118 129 168 180 128 122 132 144 146 152 158 158 161 165 164 163 164 170 174 173 173 177 178 176 165 156 156 160 159 157 152 138 126 117 109 106 101 101 96 68 48 57 58 47 49 59 63 54 42 43 37 36 38 36 34 37 37 45 57 57 50 45 39
128 142 174 106 123 259 149 124 120 100 82 60 351 221 125 100 106 107 87 89 131 136 137 154 174 162 148 135 127 135 148 151 157 161 161 163 164 164 164 164 166 169 169 170 172 166 160 159 159 161 160 154 150 141 128 120 105 91 80 75 87 83 46 41 58 57 48 49 49 46 39 17 275 37 37 38 29 25 28 28 35 53 53 41 38 41
346 135 162 144 138 242 152 120 94 63 69 234 261 251 126 104 106 100 83 85 102 111 119 127 128 131 141 146 145 150 158 161 164 167 167 166 164 162 163 165 167 168 167 168 165 158 155 157 159 160 155 148 141 132 120 96 74 70 70 71 71 60 46 49 52 38 35 31 25 29 36 40 228 291 9 20 15 11 16 17 25 47 50 37 32 39
239 189 182 134 119 130 87 69 67 54 251 247 308 61 89 99 98 87 68 66 91 100 103 104 114 132 139 141 145 152 158 162 163 166 168 169 168 165 164 166 167 167 167 165 160 157 156 157 156 154 149 144 136 124 101 74 73 79 85 86 80 84 92 72 34 21 21 25 26 32 46 63 75 321 350 7 4 1 11 19 27 47 51 39 32 37
195 185 135 66 82 107 52 55 92 166 242 30 68 90 97 97 99 89 60 19 49 107 114 112 119 127 121 119 125 136 146 148 144 150 164 171 170 168 168 168 167 167 165 162 159 158 157 156 154 151 148 144 135 114 90 83 84 88 97 106 115 122 100 41 25 25 27 37 39 35 47 65 69 63 52 41 33 29 35 39 40 48 51 41 34 37
157 152 118 61 57 103 97 79 93 113 108 87 114 172 168 160 148 119 104 313 308 120 127 124 122 124 121 119 120 124 131 130 114 118 154 166 169 170 169 167 166 164 159 157 157 156 155 153 151 150 145 136 125 109 97 93 92 100 121 138 144 129 59 33 36 31 18 33 44 37 41 56 63 64 57 49 49 50 50 49 47 45 42 39 40 41
68 152 161 115 68 87 98 91 74 73 134 216 237 248 195 153 143 123 113 221 284 144 136 132 130 133 132 131 129 127 125 120 97 124 150 159 165 167 163 160 160 158 156 156 155 152 150 147 143 140 136 130 123 109 102 104 110 130 156 162 143 75 23 21 27 23 13 24 40 35 31 36 40 41 35 29 30 37 46 53 55 44 30 35 47 49
31 52 130 105 87 87 96 107 120 116 216 236 255 262 134 132 126 101 70 310 238 161 143 135 137 146 147 146 147 139 124 109 180 168 156 158 162 160 154 151 152 153 155 157 156 151 148 144 139 136 136 133 125 117 118 126 130 145 160 154 43 9 19 21 22 26 29 28 21 10 2 4 8 17 23 22 26 38 46 52 50 40 29 33 53 58
21 14 52 79 91 108 97 102 137 147 215 262 312 111 142 136 107 73 25 275 197 163 152 144 146 155 156 155 157 152 133 157 178 171 163 160 157 154 151 150 151 152 154 157 157 153 149 145 139 136 136 132 127 130 144 159 156 163 153 43 10 16 42 41 33 33 32 22 17 14 354 332 336 7 27 33 35 40 45 46 39 30 26 28 35 38
2 5 39 78 90 93 95 101 122 201 232 273 307 329 137 128 83 73 242 220 163 156 158 153 153 159 162 162 163 162 146 167 165 161 159 155 149 148 149 149 150 151 152 154 155 150 143 139 133 131 133 136 140 148 165 183 187 198 67 54 43 53 64 51 36 30 27 30 46 59 45 3 345 16 40 49 43 34 37 39 31 22 19 19 16 13
354 8 15 64 86 85 101 98 75 277 265 287 310 24 90 106 221 224 181 155 151 156 162 159 157 159 161 162 162 145 131 139 147 149 151 152 148 146 148 148 147 147 146 145 144 140 136 134 131 131 137 145 158 165 175 190 213 303 63 59 38 59 78 52 36 38 40 46 62 73 66 55 39 40 50 50 43 36 33 33 29 22 16 11 7 8
160 54 357 84 109 93 95 81 90 209 273 309 314 349 48 105 186 149 127 140 153 156 157 156 156 156 155 148 139 134 133 134 140 145 148 148 146 146 149 148 145 144 143 140 137 133 133 134 136 142 151 159 168 174 181 201 259 329 112 82 34 87 114 50 34 44 50 52 60 66 65 58 45 45 54 53 50 42 26 21 21 19 12 6 4 6
194 158 168 200 184 146 161 163 162 195 260 34 117 149 110 125 143 138 131 141 155 154 149 148 147 151 151 141 133 134 135 135 140 144 145 146 147 150 153 150 146 145 144 141 138 137 139 143 148 155 164 172 178 184 197 233 265 168 135 108 87 149 155 61 40 39 45 49 49 51 56 55 49 51 61 66 55 35 17 9 6 3 360 357 1 1
241 201 163 158 159 143 144 167 162 134 88 93 110 122 124 129 141 144 141 144 149 149 146 141 139 143 145 138 134 135 137 138 141 144 145 147 151 154 155 153 151 150 147 145 146 148 149 152 157 162 168 177 186 199 232 253 222 157 135 92 109 170 151 84 59 31 32 39 34 37 44 48 53 57 60 55 32 12 3 355 349 347 338 335 343 347
303 343 94 107 103 82 63 84 118 107 90 97 110 121 130 138 145 147 144 144 147 149 148 145 142 143 142 138 136 137 140 143 144 144 145 146 148 151 154 155 154 152 150 151 154 157 158 157 159 161 162 161 159 167 215 210 183 164 167 107 108 146 159 125 22 347 347 355 5 20 27 28 39 50 46 30 7 351 337 323 320 324 322 324 333 340
8 34 56 81 88 87 74 93 118 108 100 104 112 120 126 133 142 147 145 146 150 152 151 148 146 144 143 142 140 140 143 145 144 143 145 146 147 152 155 154 153 152 152 155 156 158 161 164 164 163 159 156 151 139 172 183 183 173 160 123 114 148 169 182 290 310 305 312 332 360 8 10 12 3 349 354 358 353 339 323 316 313 316 320 326 334
23 57 68 58 51 69 118 125 110 104 105 108 111 117 121 125 135 143 144 149 154 153 151 150 149 147 146 145 145 143 143 146 146 146 148 148 149 151 152 150 149 147 149 155 157 158 165 168 165 161 162 167 174 149 168 186 199 189 146 62 46 177 182 182 181 319 313 330 8 20 5 355 342 323 311 328 348 353 350 346 338 328 322 318 319 329
111 84 99 111 86 73 99 118 106 95 91 100 107 111 115 121 130 137 141 148 152 152 152 154 155 154 152 150 149 146 146 149 151 152 152 152 151 152 153 152 150 148 152 159 161 163 167 166 159 157 165 185 221 192 166 180 193 183 150 35 355 208 196 192 177 220 281 329 35 37 359 342 329 311 293 301 317 327 336 348 348 340 336 329 321 325
98 108 116 121 126 142 184 155 128 112 100 112 116 118 119 122 128 135 143 150 153 154 156 155 154 155 155 154 153 151 150 152 155 156 157 158 158 159 159 159 158 158 163 167 168 170 171 167 166 170 172 191 231 196 163 167 172 163 134 43 22 177 201 204 198 212 255 313 23 1 337 338 337 327 312 300 301 309 318 329 334 332 331 333 330 326
132 162 164 142 140 181 197 163 135 127 131 129 124 125 128 127 125 126 136 150 158 159 158 155 153 152 152 153 156 157 156 156 159 161 161 160 161 163 163 165 168 165 165 169 172 174 173 173 181 191 195 215 225 190 170 168 163 133 104 74 48 69 164 200 206 214 240 288 344 337 333 342 345 339 332 322 315 317 320 325 331 329 322 321 327 330
Height
1500 1508 1512 1512 1509 1505 1501 1501 1501 1498 1499 1499 1501 1508 1513 1519 1519 1510 1508 1505 1502 1515 1522 1520 1523 1524 1522 1521 1521 1524 1527 1529 1532 1534 1538 1541 1543 1544 1544 1543 1543 1543 1543 1543 1543 1542 1542 1542 1542 1543 1544 1545 1546 1547 1548 1548 1548 1549 1549 1549 1549 1549 1550 1551 1551 1551 1551 1551 1550 1550 1550 1550 1550 1549 1549 1548 1548 1547 1546 1546 1545 1543 1542 1541 1540 1538
1502 1513 1512 1504 1500 1497 1496 1495 1494 1494 1495 1495 1497 1505 1510 1513 1513 1506 1505 1503 1500 1512 1521 1519 1522 1524 1521 1521 1521 1522 1525 1528 1530 1533 1537 1540 1542 1543 1541 1541 1542 1541 1542 1542 1542 1542 1542 1542 1542 1543 1543 1544 1546 1547 1549 1549 1549 1550 1550 1550 1550 1550 1551 1552 1552 1552 1551 1551 1551 1551 1551 1551 1551 1550 1550 1549 1548 1547 1546 1545 1544 1543 1542 1541 1540 1539
1511 1513 1503 1495 1492 1492 1493 1491 1492 1495 1494 1495 1497 1504 1511 1511 1509 1508 1505 1501 1503 1513 1521 1521 1523 1524 1522 1521 1522 1521 1524 1527 1528 1530 1534 1538 1540 1540 1538 1538 1539 1541 1542 1540 1540 1541 1542 1543 1543 1544 1544 1545 1546 1547 1549 1550 1550 1550 1551 1551 1551 1552 1552 1553 1553 1552 1552 1552 1552 1552 1552 1552 1552 1551 1551 1550 1548 1547 1546 1545 1544 1543 1542 1541 1540 1539
1519 1509 1494 1489 1490 1493 1496 1491 1492 1496 1494 1494 1497 1503 1511 1507 1508 1515 1510 1505 1508 1512 1519 1522 1524 1525 1525 1525 1524 1524 1524 1526 1529 1531 1533 1535 1536 1536 1535 1534 1537 1539 1539 1538 1539 1541 1543 1544 1546 1546 1546 1545 1546 1547 1549 1550 1551 1551 1551 1551 1552 1553 1553 1553 1553 1553 1553 1553 1552 1552 1552 1552 1552 1551 1551 1550 1548 1547 1546 1545 1544 1543 1542 1541 1540 1539
1513 1500 1488 1488 1490 1494 1497 1494 1494 1499 1499 1497 1496 1498 1504 1503 1502 1505 1505 1508 1512 1514 1515 1522 1531 1531 1527 1529 1529 1526 1525 1528 1530 1533 1535 1536 1534 1533 1533 1534 1537 1537 1538 1540 1542 1542 1543 1545 1546 1547 1546 1545 1545 1547 1548 1549 1550 1551 1551 1552 1553 1553 1554 1554 1554 1554 1553 1553 1553 1552 1552 1551 1551 1551 1550 1550 1549 1548 1547 1546 1545 1543 1542 1541 1539 1538
1506 1494 1488 1491 1493 1493 1497 1498 1495 1497 1501 1500 1494 1490 1493 1497 1498 1499 1504 1512 1523 1527 1517 1519 1539 1541 1529 1529 1531 1527 1528 1531 1533 1534 1536 1536 1534 1533 1533 1535 1537 1538 1539 1541 1542 1542 1541 1542 1544 1546 1546 1545 1545 1547 1549 1549 1549 1550 1551 1552 1553 1554 1554 1554 1554 1554 1554 1553 1553 1553 1552 1551 1550 1550 1549 1549 1548 1548 1547 1546 1545 1543 1542 1540 1539 1538
1498 1491 1488 1492 1494 1495 1499 1500 1494 1492 1503 1505 1492 1483 1486 1490 1495 1501 1506 1513 1525 1528 1514 1511 1532 1541 1533 1529 1529 1528 1530 1532 1534 1535 1535 1535 1533 1532 1533 1535 1536 1537 1538 1539 1540 1540 1539 1540 1542 1544 1545 1545 1545 1547 1548 1549 1549 1549 1550 1552 1553 1554 1554 1555 1554 1554 1554 1553 1553 1553 1552 1551 1550 1549 1549 1548 1548 1547 1547 1546 1545 1543 1541 1540 1538 1537
1493 1492 1492 1491 1493 1497 1501 1501 1491 1488 1501 1503 1485 1479 1485 1488 1494 1499 1503 1509 1513 1513 1513 1512 1519 1533 1535 1528 1524 1526 1530 1533 1533 1533 1534 1533 1533 1533 1533 1534 1535 1536 1536 1536 1538 1538 1538 1539 1541 1542 1544 1545 1545 1546 1547 1548 1549 1549 1550 1551 1553 1554 1555 1555 1555 1555 1554 1554 1553 1553 1552 1551 1550 1550 1549 1548 1548 1547 1547 1546 1544 1543 1541 1540 1538 1537
1489 1493 1494 1491 1495 1499 1497 1492 1485 1485 1495 1492 1477 1478 1483 1485 1490 1493 1498 1506 1505 1511 1525 1522 1515 1529 1535 1525 1522 1526 1532 1538 1535 1531 1531 1531 1532 1532 1533 1535 1535 1535 1535 1536 1537 1538 1539 1540 1542 1543 1544 1545 1545 1545 1547 1548 1549 1550 1550 1552 1553 1554 1555 1555 1555 1555 1554 1554 1554 1553 1552 1551 1551 1550 1549 1548 1547 1547 1546 1545 1544 1543 1541 1540 1539 1537
1487 1488 1487 1488 1495 1495 1488 1483 1479 1484 1490 1481 1473 1477 1480 1483 1488 1489 1496 1502 1502 1513 1528 1523 1515 1526 1533 1527 1527 1532 1535 1538 1535 1529 1529 1530 1531 1532 1532 1534 1534 1533 1534 1537 1538 1538 1540 1541 1543 1544 1544 1545 1545 1545 1547 1547 1548 1550 1550 1552 1553 1554 1555 1555 1555 1555 1554 1554 1554 1553 1552 1551 1551 1550 1549 1548 1547 1546 1546 1545 1544 1543 1542 1541 1539 1538
1484 1481 1481 1483 1487 1484 1480 1479 1478 1480 1481 1475 1477 1483 1486 1489 1489 1492 1498 1500 1510 1521 1518 1512 1510 1518 1530 1530 1528 1528 1525 1526 1528 1529 1529 1531 1531 1532 1532 1531 1531 1532 1534 1536 1537 1538 1540 1541 1542 1544 1544 1545 1546 1546 1547 1547 1548 1550 1550 1552 1553 1554 1554 1554 1555 1555 1555 1554 1554 1553 1552 1551 1550 1550 1549 1548 1547 1546 1546 1545 1544 1543 1542 1541 1539 1538
1484 1484 1483 1478 1478 1476 1477 1480 1478 1475 1474 1476 1484 1491 1497 1500 1497 1503 1505 1506 1523 1527 1510 1504 1506 1513 1527 1527 1519 1516 1513 1513 1518 1522 1527 1531 1531 1530 1530 1529 1529 1532 1533 1534 1535 1536 1539 1540 1541 1543 1544 1545 1546 1547 1547 1548 1549 1550 1551 1552 1552 1553 1554 1554 1555 1555 1555 1555 1554 1553 1552 1552 1551 1550 1549 1548 1547 1546 1545 1545 1544 1543 1543 1541 1540 1538
1489 1487 1481 1476 1473 1473 1480 1487 1484 1480 1477 1481 1488 1495 1508 1517 1517 1522 1521 1520 1527 1520 1507 1504 1504 1514 1525 1520 1513 1511 1510 1509 1509 1513 1521 1525 1526 1526 1526 1527 1529 1530 1531 1531 1533 1534 1536 1538 1539 1541 1543 1544 1546 1547 1548 1549 1550 1551 1552 1552 1553 1554 1554 1555 1555 1555 1555 1555 1554 1554 1553 1552 1551 1550 1549 1548 1547 1546 1545 1545 1544 1543 1543 1541 1540 1539
1499 1490 1480 1480 1477 1469 1476 1489 1495 1491 1485 1486 1491 1499 1513 1524 1533 1538 1532 1530 1527 1515 1508 1502 1503 1522 1527 1517 1515 1514 1509 1508 1508 1513 1517 1517 1519 1522 1523 1526 1528 1528 1529 1530 1530 1532 1534 1536 1539 1541 1542 1544 1545 1546 1548 1549 1550 1551 1552 1553 1554 1554 1555 1555 1555 1555 1555 1555 1554 1553 1553 1552 1551 1550 1549 1548 1547 1546 1545 1545 1544 1543 1542 1541 1540 1539
1509 1504 1488 1484 1481 1471 1472 1480 1485 1486 1485 1485 1484 1492 1506 1513 1526 1535 1530 1529 1525 1515 1512 1507 1514 1530 1530 1522 1521 1516 1510 1509 1511 1515 1518 1519 1521 1523 1524 1526 1527 1527 1528 1529 1530 1532 1535 1539 1541 1543 1544 1545 1546 1547 1548 1549 1550 1551 1553 1554 1554 1555 1555 1555 1555 1555 1555 1554 1553 1553 1552 1552 1551 1550 1549 1548 1547 1546 1545 1545 1544 1543 1542 1541 1540 1539
1506 1505 1484 1475 1474 1470 1473 1470 1467 1479 1489 1484 1478 1490 1501 1498 1504 1517 1517 1514 1513 1516 1520 1521 1528 1533 1528 1527 1524 1518 1515 1514 1515 1519 1521 1524 1526 1525 1527 1527 1526 1528 1528 1530 1533 1536 1540 1542 1544 1545 1545 1546 1547 1548 1548 1549 1551 1552 1553 1554 1554 1555 1556 1556 1556 1556 1555 1554 1553 1553 1553 1552 1551 1551 1550 1548 1547 1546 1546 1545 1544 1543 1542 1541 1541 1539
1503 1500 1478 1472 1472 1466 1470 1467 1463 1476 1488 1485 1485 1491 1489 1480 1489 1507 1512 1506 1507 1521 1529 1531 1540 1541 1533 1534 1530 1522 1523 1521 1520 1522 1523 1526 1527 1527 1529 1527 1527 1529 1530 1534 1537 1540 1542 1543 1545 1546 1547 1549 1550 1550 1550 1550 1552 1553 1553 1553 1554 1555 1556 1556 1557 1556 1555 1554 1553 1553 1553 1553 1552 1551 1550 1549 1548 1547 1546 1545 1544 1543 1542 1541 1541 1540
1494 1497 1480 1474 1478 1468 1462 1466 1464 1464 1471 1484 1491 1483 1476 1479 1486 1498 1512 1515 1516 1529 1534 1533 1542 1545 1539 1542 1539 1531 1529 1527 1525 1525 1526 1528 1530 1530 1531 1530 1531 1532 1534 1537 1539 1541 1543 1544 1546 1548 1549 1551 1552 1552 1552 1552 1553 1554 1554 1554 1554 1556 1556 1556 1557 1557 1556 1554 1553 1553 1553 1553 1553 1552 1551 1549 1548 1547 1546 1545 1545 1544 1543 1542 1541 1540
1484 1498 1485 1471 1477 1471 1460 1468 1475 1466 1460 1471 1475 1469 1475 1494 1499 1499 1509 1519 1521 1532 1541 1538 1538 1540 1540 1542 1541 1536 1531 1529 1529 1528 1528 1530 1531 1533 1534 1534 1536 1536 1537 1539 1540 1543 1544 1545 1547 1548 1550 1552 1552 1552 1552 1553 1554 1554 1555 1555 1555 1556 1556 1556 1557 1557 1556 1555 1554 1554 1554 1553 1553 1552 1551 1550 1548 1547 1546 1546 1545 1544 1543 1542 1541 1539
1478 1496 1492 1472 1468 1470 1467 1473 1483 1479 1466 1465 1468 1468 1474 1486 1493 1495 1498 1505 1512 1524 1542 1547 1543 1542 1539 1533 1533 1533 1529 1526 1529 1529 1529 1531 1533 1534 1535 1536 1538 1539 1539 1540 1541 1543 1545 1545 1546 1547 1549 1550 1550 1551 1552 1553 1555 1554 1555 1555 1556 1556 1556 1556 1557 1557 1556 1555 1554 1554 1554 1554 1553 1552 1552 1550 1548 1547 1546 1546 1545 1544 1543 1542 1541 1538
1476 1490 1493 1478 1468 1473 1478 1477 1478 1478 1474 1474 1478 1481 1480 1479 1482 1487 1489 1491 1497 1511 1534 1550 1553 1545 1531 1522 1523 1526 1524 1523 1522 1524 1527 1531 1532 1533 1535 1537 1538 1539 1540 1541 1542 1544 1544 1544 1545 1546 1547 1547 1548 1551 1552 1554 1555 1555 1556 1556 1556 1557 1556 1556 1557 1557 1556 1556 1555 1555 1554 1554 1554 1552 1552 1550 1549 1548 1546 1546 1545 1544 1543 1542 1540 1538
1477 1485 1489 1485 1479 1481 1479 1469 1464 1467 1466 1471 1477 1478 1478 1479 1483 1493 1498 1492 1491 1505 1522 1538 1551 1544 1524 1517 1518 1518 1519 1518 1517 1520 1526 1529 1530 1533 1536 1537 1538 1539 1540 1542 1543 1543 1543 1543 1543 1545 1546 1547 1549 1551 1553 1553 1554 1556 1557 1557 1557 1557 1557 1557 1556 1556 1556 1556 1556 1556 1555 1555 1554 1552 1551 1550 1549 1548 1547 1546 1545 1544 1543 1541 1540 1539
1467 1477 1485 1487 1482 1478 1471 1461 1458 1458 1456 1461 1467 1468 1471 1475 1481 1494 1502 1497 1499 1510 1514 1524 1544 1542 1522 1517 1517 1515 1515 1515 1517 1522 1524 1526 1529 1532 1535 1536 1538 1540 1541 1542 1542 1542 1543 1543 1543 1545 1547 1549 1551 1551 1551 1552 1554 1555 1556 1557 1557 1557 1557 1556 1556 1556 1556 1556 1556 1556 1555 1555 1554 1553 1551 1550 1549 1548 1547 1546 1544 1543 1542 1541 1540 1539
1465 1477 1484 1485 1478 1471 1464 1458 1455 1453 1455 1463 1467 1465 1468 1473 1475 1482 1489 1493 1505 1517 1516 1526 1546 1541 1523 1520 1519 1516 1516 1517 1521 1524 1524 1526 1529 1531 1534 1536 1538 1540 1541 1541 1541 1541 1543 1543 1544 1545 1547 1549 1551 1550 1550 1552 1554 1555 1556 1557 1557 1557 1557 1556 1556 1556 1556 1556 1556 1556 1556 1555 1554 1553 1552 1550 1549 1547 1546 1545 1544 1543 1542 1541 1540 1539
1470 1479 1484 1489 1492 1486 1479 1474 1468 1462 1463 1472 1474 1468 1468 1471 1473 1479 1485 1490 1507 1519 1518 1526 1542 1538 1525 1523 1522 1519 1520 1523 1526 1527 1527 1528 1530 1531 1533 1535 1537 1540 1540 1540 1540 1542 1543 1543 1544 1546 1548 1550 1550 1550 1550 1552 1555 1556 1556 1557 1557 1556 1557 1556 1556 1556 1556 1556 1556 1556 1555 1555 1554 1553 1552 1550 1549 1547 1547 1546 1544 1544 1543 1541 1540 1539
1469 1478 1480 1491 1501 1503 1500 1494 1485 1476 1473 1477 1479 1474 1473 1474 1475 1482 1489 1496 1509 1519 1517 1521 1533 1535 1528 1526 1526 1523 1524 1526 1527 1528 1529 1530 1530 1531 1532 1534 1537 1539 1539 1540 1540 1541 1542 1542 1544 1545 1548 1550 1550 1550 1551 1552 1555 1556 1556 1557 1556 1556 1557 1556 1556 1556 1556 1556 1556 1555 1556 1555 1555 1554 1552 1550 1549 1548 1547 1546 1545 1544 1543 1542 1541 1539
1466 1474 1475 1483 1490 1491 1491 1485 1475 1473 1479 1484 1484 1480 1479 1477 1476 1481 1492 1503 1510 1516 1521 1520 1523 1532 1533 1529 1528 1526 1525 1526 1527 1528 1531 1531 1531 1531 1532 1534 1537 1538 1539 1540 1540 1541 1541 1542 1544 1546 1548 1549 1549 1550 1552 1553 1555 1556 1556 1556 1556 1556 1557 1557 1557 1557 1556 1556 1555 1555 1555 1555 1555 1553 1552 1551 1549 1548 1548 1547 1546 1545 1544 1543 1542 1540
1466 1475 1474 1477 1480 1478 1478 1476 1469 1472 1480 1484 1484 1483 1480 1477 1477 1482 1492 1502 1505 1513 1524 1521 1518 1529 1533 1527 1526 1525 1524 1525 1526 1528 1530 1530 1530 1531 1532 1535 1536 1538 1539 1540 1541 1541 1541 1542 1545 1546 1548 1549 1550 1551 1552 1554 1555 1556 1556 1556 1556 1557 1557 1557 1557 1557 1557 1556 1555 1555 1555 1555 1554 1553 1553 1551 1550 1549 1548 1548 1547 1546 1544 1543 1542 1541
1466 1475 1472 1473 1478 1475 1474 1474 1473 1476 1480 1481 1482 1485 1483 1480 1480 1485 1493 1499 1499 1504 1514 1517 1517 1525 1526 1523 1522 1521 1520 1522 1524 1527 1528 1529 1530 1531 1533 1535 1536 1538 1539 1540 1541 1542 1542 1544 1546 1547 1548 1549 1550 1552 1552 1554 1555 1555 1556 1556 1556 1557 1557 1558 1558 1557 1557 1557 1556 1555 1555 1555 1555 1554 1553 1552 1551 1550 1549 1548 1547 1546 1545 1544 1543 1542
1463 1472 1469 1470 1476 1477 1477 1476 1477 1480 1484 1485 1486 1487 1486 1484 1484 1488 1495 1497 1496 1498 1503 1507 1515 1520 1519 1518 1519 1518 1519 1522 1524 1527 1528 1529 1531 1531 1533 1535 1537 1538 1539 1539 1541 1543 1544 1545 1547 1548 1549 1549 1551 1552 1553 1554 1555 1555 1556 1556 1557 1557 1557 1558 1558 1557 1557 1557 1556 1555 1555 1555 1555 1554 1553 1552 1551 1550 1549 1549 1548 1547 1546 1544 1543 1542
1462 1471 1468 1467 1476 1483 1482 1480 1482 1485 1487 1491 1495 1492 1489 1490 1491 1493 1497 1498 1500 1505 1505 1506 1513 1519 1516 1515 1516 1518 1521 1523 1525 1528 1528 1529 1530 1531 1533 1535 1537 1538 1539 1540 1542 1543 1544 1546 1547 1549 1549 1550 1552 1552 1553 1554 1555 1555 1556 1556 1557 1557 1557 1558 1558 1557 1557 1557 1556 1556 1555 1555 1554 1554 1553 1552 1552 1551 1550 1549 1548 1547 1547 1545 1544 1544
1462 1470 1468 1469 1481 1488 1485 1484 1487 1487 1488 1496 1501 1498 1495 1495 1496 1496 1496 1496 1499 1506 1511 1513 1516 1518 1516 1515 1517 1519 1522 1524 1526 1527 1527 1529 1530 1531 1533 1535 1536 1538 1539 1541 1542 1543 1544 1546 1548 1549 1550 1551 1552 1552 1554 1554 1555 1556 1556 1557 1557 1557 1557 1557 1557 1557 1557 1557 1557 1556 1555 1555 1554 1554 1553 1552 1552 1551 1550 1550 1549 1548 1547 1546 1545 1544
1464 1469 1470 1474 1485 1488 1484 1485 1486 1487 1497 1507 1504 1497 1496 1494 1494 1495 1496 1495 1495 1500 1508 1513 1513 1512 1514 1515 1518 1521 1523 1524 1525 1525 1526 1528 1530 1532 1534 1535 1536 1538 1540 1541 1542 1543 1545 1547 1548 1549 1551 1552 1553 1553 1554 1554 1555 1556 1556 1557 1557 1557 1557 1557 1557 1557 1557 1557 1557 1556 1555 1555 1554 1553 1553 1553 1552 1551 1551 1550 1549 1548 1548 1547 1546 1545
1465 1467 1470 1474 1481 1489 1488 1483 1484 1498 1514 1514 1499 1490 1492 1493 1494 1497 1500 1499 1498 1499 1502 1505 1507 1510 1513 1515 1516 1519 1521 1522 1523 1524 1525 1527 1529 1532 1534 1535 1537 1538 1540 1542 1543 1543 1545 1547 1549 1550 1551 1552 1553 1553 1554 1555 1555 1556 1556 1557 1557 1557 1557 1557 1557 1557 1557 1557 1556 1556 1555 1554 1554 1553 1553 1553 1552 1552 1551 1550 1549 1549 1548 1547 1547 1546
1466 1467 1471 1473 1479 1488 1487 1484 1501 1522 1519 1502 1492 1488 1490 1491 1492 1496 1500 1500 1499 1500 1501 1505 1509 1511 1513 1514 1515 1517 1520 1521 1523 1525 1526 1528 1529 1530 1532 1534 1536 1538 1540 1542 1543 1544 1546 1547 1549 1551 1552 1553 1553 1553 1554 1555 1555 1556 1557 1557 1557 1558 1558 1558 1558 1557 1557 1556 1556 1555 1555 1554 1554 1553 1553 1553 1552 1551 1551 1550 1550 1549 1548 1548 1547 1547
1465 1468 1471 1475 1481 1487 1489 1495 1513 1522 1508 1496 1496 1494 1492 1494 1493 1496 1505 1506 1501 1501 1503 1507 1512 1512 1512 1515 1516 1517 1520 1522 1524 1527 1528 1529 1530 1530 1532 1534 1535 1538 1540 1542 1543 1544 1546 1548 1549 1551 1552 1552 1553 1553 1554 1555 1556 1557 1557 1557 1558 1558 1558 1558 1558 1557 1557 1556 1556 1555 1555 1554 1553 1553 1553 1553 1552 1551 1551 1551 1550 1549 1549 1548 1548 1547
1459 1466 1470 1479 1486 1489 1497 1505 1508 1510 1509 1507 1503 1495 1492 1495 1492 1494 1506 1511 1504 1501 1504 1507 1512 1514 1514 1516 1517 1518 1520 1523 1526 1529 1530 1530 1531 1532 1533 1534 1536 1539 1540 1542 1544 1545 1547 1549 1550 1551 1552 1552 1553 1554 1555 1556 1557 1557 1558 1558 1559 1559 1559 1559 1558 1557 1557 1556 1555 1555 1555 1554 1554 1553 1553 1553 1552 1552 1551 1551 1550 1550 1549 1549 1548 1548
1455 1460 1465 1477 1488 1491 1499 1509 1513 1519 1522 1512 1499 1491 1487 1488 1486 1487 1501 1511 1506 1503 1504 1506 1510 1514 1515 1517 1519 1519 1520 1525 1530 1531 1530 1531 1532 1532 1534 1536 1538 1539 1541 1542 1544 1546 1548 1550 1550 1551 1552 1552 1554 1555 1555 1556 1557 1558 1558 1559 1559 1559 1559 1559 1558 1557 1557 1556 1555 1555 1554 1554 1554 1554 1553 1553 1552 1552 1551 1551 1550 1550 1549 1549 1549 1548
1458 1461 1461 1472 1487 1490 1495 1508 1516 1521 1518 1504 1494 1488 1485 1485 1484 1485 1501 1512 1506 1503 1505 1506 1509 1513 1513 1515 1518 1517 1520 1528 1532 1530 1530 1531 1532 1533 1535 1536 1538 1540 1542 1543 1545 1547 1549 1550 1550 1552 1552 1553 1555 1556 1556 1557 1558 1558 1559 1559 1559 1559 1559 1558 1558 1557 1557 1556 1555 1555 1554 1554 1554 1553 1553 1553 1552 1552 1552 1551 1551 1550 1549 1549 1549 1548
1469 1469 1469 1477 1488 1490 1494 1506 1511 1510 1506 1497 1491 1489 1486 1484 1484 1495 1513 1514 1501 1500 1506 1505 1508 1512 1512 1514 1516 1516 1519 1525 1527 1527 1529 1531 1532 1533 1535 1536 1538 1540 1543 1545 1547 1548 1549 1550 1551 1552 1553 1554 1556 1556 1557 1558 1559 1559 1560 1559 1559 1559 1559 1559 1558 1557 1557 1556 1555 1555 1554 1554 1554 1553 1553 1552 1552 1552 1552 1551 1551 1550 1550 1550 1549 1548
1480 1480 1481 1487 1493 1492 1496 1506 1510 1505 1498 1492 1489 1488 1486 1486 1493 1509 1516 1504 1495 1500 1505 1504 1507 1510 1511 1514 1516 1516 1517 1519 1520 1524 1528 1530 1532 1534 1536 1537 1540 1542 1544 1546 1547 1548 1550 1551 1552 1553 1554 1555 1556 1557 1558 1559 1559 1560 1560 1559 1559 1559 1559 1558 1558 1557 1557 1556 1556 1555 1555 1554 1554 1554 1553 1553 1552 1552 1552 1551 1551 1550 1550 1550 1549 1548
1488 1489 1489 1492 1496 1496 1497 1504 1512 1509 1496 1487 1487 1486 1485 1493 1504 1506 1499 1493 1495 1500 1502 1504 1507 1509 1511 1514 1515 1516 1517 1518 1520 1524 1528 1530 1533 1535 1537 1539 1541 1543 1545 1546 1548 1549 1550 1551 1552 1554 1555 1556 1557 1558 1559 1559 1560 1560 1560 1559 1559 1559 1559 1558 1558 1558 1557 1557 1556 1556 1555 1555 1555 1554 1553 1553 1553 1552 1552 1552 1551 1551 1550 1550 1549 1548
1490 1493 1496 1495 1497 1500 1501 1505 1514 1512 1496 1485 1487 1489 1488 1495 1499 1495 1491 1494 1498 1499 1501 1505 1507 1508 1512 1514 1515 1517 1518 1520 1523 1526 1529 1532 1534 1535 1538 1540 1541 1543 1545 1546 1548 1549 1550 1552 1553 1555 1556 1557 1558 1559 1559 1560 1560 1559 1559 1560 1559 1559 1559 1558 1558 1558 1558 1557 1557 1556 1555 1555 1555 1554 1554 1553 1553 1553 1552 1552 1551 1551 1550 1550 1549 1548
1489 1492 1496 1495 1494 1499 1503 1502 1502 1500 1490 1483 1487 1490 1490 1491 1492 1490 1493 1497 1499 1500 1503 1505 1507 1509 1511 1512 1515 1518 1520 1522 1525 1528 1530 1533 1535 1536 1539 1540 1542 1544 1545 1547 1549 1550 1551 1553 1554 1555 1557 1557 1558 1559 1559 1559 1559 1559 1559 1559 1559 1559 1559 1559 1559 1558 1558 1558 1557 1556 1556 1555 1555 1554 1554 1554 1553 1553 1553 1552 1552 1551 1550 1550 1549 1548
1487 1483 1485 1488 1488 1490 1493 1492 1488 1488 1487 1485 1486 1488 1489 1490 1492 1493 1494 1496 1499 1502 1503 1505 1508 1511 1511 1513 1516 1519 1521 1524 1527 1529 1531 1533 1535 1537 1539 1541 1543 1544 1546 1547 1549 1551 1552 1553 1554 1556 1557 1558 1558 1558 1558 1559 1559 1559 1559 1559 1559 1559 1559 1559 1559 1558 1558 1558 1557 1556 1556 1555 1555 1554 1554 1554 1553 1553 1552 1552 1551 1551 1550 1549 1548 1548
1481 1477 1478 1483 1485 1484 1486 1487 1486 1487 1489 1488 1487 1488 1490 1491 1492 1493 1494 1496 1499 1502 1503 1505 1508 1510 1512 1514 1516 1519 1523 1525 1527 1530 1533 1534 1536 1538 1540 1541 1543 1545 1546 1548 1550 1551 1553 1554 1555 1556 1557 1558 1558 1558 1558 1558 1559 1558 1558 1559 1558 1558 1558 1559 1558 1558 1558 1558 1557 1556 1556 1555 1555 1555 1554 1554 1553 1552 1552 1551 1550 1550 1549 1548 1548 1547
1479 1477 1479 1483 1486 1489 1493 1492 1488 1489 1491 1489 1489 1490 1490 1491 1493 1494 1495 1497 1499 1502 1504 1506 1508 1511 1513 1514 1515 1519 1524 1525 1528 1531 1533 1534 1537 1539 1540 1542 1544 1546 1547 1549 1550 1552 1554 1554 1555 1556 1557 1557 1558 1558 1558 1558 1558 1558 1558 1558 1558 1558 1558 1558 1558 1558 1557 1557 1557 1556 1556 1555 1555 1554 1554 1553 1553 1552 1551 1551 1550 1549 1548 1548 1547 1546
1481 1479 1483 1487 1490 1492 1495 1493 1490 1491 1492 1490 1490 1491 1491 1492 1494 1494 1496 1498 1500 1502 1505 1506 1509 1511 1514 1515 1517 1520 1523 1526 1529 1531 1533 1535 1538 1539 1541 1543 1545 1546 1548 1549 1550 1552 1553 1554 1555 1556 1556 1557 1557 1558 1558 1558 1558 1558 1558 1558 1558 1558 1558 1558 1558 1558 1557 1556 1556 1556 1555 1555 1554 1554 1553 1553 1552 1552 1551 1550 1549 1548 1547 1547 1546 1545
1480 1482 1485 1490 1494 1496 1496 1494 1491 1493 1495 1493 1492 1493 1493 1493 1494 1495 1498 1500 1501 1503 1506 1507 1509 1511 1513 1516 1518 1520 1523 1527 1529 1530 1533 1536 1538 1540 1542 1544 1545 1547 1548 1549 1551 1552 1553 1554 1555 1555 1556 1556 1557 1557 1557 1557 1557 1558 1558 1558 1558 1558 1558 1558 1558 1557 1557 1556 1555 1555 1555 1554 1553 1553 1552 1552 1551 1551 1550 1549 1548 1548 1547 1546 1545 1544
1482 1485 1487 1491 1497 1499 1496 1491 1489 1492 1497 1497 1495 1495 1495 1495 1496 1497 1499 1500 1502 1504 1506 1508 1511 1513 1514 1516 1518 1520 1523 1527 1529 1532 1534 1536 1538 1541 1542 1544 1546 1547 1548 1549 1551 1552 1553 1554 1555 1555 1556 1556 1556 1557 1557 1557 1557 1558 1557 1558 1558 1557 1557 1558 1557 1557 1556 1555 1555 1555 1554 1553 1553 1552 1551 1551 1550 1550 1549 1548 1547 1546 1545 1545 1544 1543
1481 1483 1484 1488 1493 1493 1490 1488 1487 1490 1495 1497 1496 1496 1497 1497 1497 1499 1500 1502 1503 1505 1507 1508 1511 1514 1516 1518 1519 1521 1523 1527 1530 1532 1534 1537 1539 1541 1542 1544 1546 1547 1548 1549 1550 1551 1553 1554 1555 1555 1556 1556 1556 1556 1556 1557 1557 1557 1557 1558 1558 1557 1557 1557 1557 1556 1556 1555 1555 1554 1553 1553 1552 1551 1550 1550 1549 1548 1548 1547 1546 1545 1544 1543 1543 1542